When you browse on this site, cookies collect data to enhance your experience and personalize the content and advertising you see.
Visit our Privacy Policy to learn more. By continuing to use the site, you agree to this use of cookies and data.
  • Em Portugal
  • Lista de países
  • Para 7 dias
  • Temperatura da água
  • Mapa do tempo
  • Widgets de tempo
  • user-avatar
    Iniciar Sessão

    Previsão horária em Sloboda

    Hoje, 6 Junho, Sábado

    Tempo Temperatura Precipitação Vento Pressão Humidade
    00:00 +9°C° 0 mm 2 m/s 746 mmHg 97%
    01:00 +10°C° 0 mm 1 m/s 746 mmHg 97%
    02:00 +9°C° 0 mm 1 m/s 746 mmHg 98%
    03:00 +10°C° 0 mm 1 m/s 746 mmHg 97%
    04:00 +11°C° 0 mm 1 m/s 746 mmHg 97%
    05:00 +11°C° 0 mm 1 m/s 746 mmHg 96%
    06:00 +13°C° 0 mm 2 m/s 746 mmHg 91%
    07:00 +15°C° 0 mm 2 m/s 746 mmHg 86%
    08:00 +17°C° 0 mm 2 m/s 747 mmHg 78%
    09:00 +18°C° 0 mm 3 m/s 747 mmHg 71%
    10:00 +19°C° 0 mm 3 m/s 747 mmHg 64%
    11:00 +21°C° 0 mm 3 m/s 747 mmHg 56%
    12:00 +22°C° 0 mm 3 m/s 747 mmHg 58%
    13:00 +22°C° 0 mm 3 m/s 747 mmHg 59%
    14:00 +24°C° 0 mm 3 m/s 747 mmHg 60%
    15:00 +22°C° 0.5 mm 3 m/s 746 mmHg 69%
    16:00 +21°C° 0.5 mm 3 m/s 746 mmHg 79%
    17:00 +20°C° 0.5 mm 3 m/s 746 mmHg 88%
    18:00 +19°C° 0.1 mm 2 m/s 746 mmHg 91%
    19:00 +18°C° 0.1 mm 2 m/s 746 mmHg 93%
    20:00 +17°C° 0.1 mm 2 m/s 747 mmHg 96%
    21:00 +17°C° 0 mm 2 m/s 747 mmHg 96%
    22:00 +16°C° 0 mm 2 m/s 747 mmHg 96%
    23:00 +16°C° 0 mm 2 m/s 747 mmHg 97%

    Amanhã, 7 Junho, Domingo

    Tempo Temperatura Precipitação Vento Pressão Humidade
    00:00 +15°C° 0.2 mm 1 m/s 747 mmHg 97%
    01:00 +15°C° 0.2 mm 1 m/s 748 mmHg 97%
    02:00 +15°C° 0.2 mm 1 m/s 748 mmHg 98%
    03:00 +15°C° 0 mm 1 m/s 748 mmHg 98%
    04:00 +16°C° 0 mm 1 m/s 749 mmHg 97%
    05:00 +15°C° 0 mm 0 m/s 749 mmHg 97%
    06:00 +18°C° 0 mm 1 m/s 749 mmHg 95%
    07:00 +19°C° 0 mm 1 m/s 750 mmHg 92%
    08:00 +20°C° 0 mm 1 m/s 750 mmHg 90%
    09:00 +21°C° 0 mm 1 m/s 750 mmHg 84%
    10:00 +22°C° 0 mm 1 m/s 751 mmHg 78%
    11:00 +24°C° 0 mm 2 m/s 751 mmHg 73%
    12:00 +25°C° 0 mm 1 m/s 751 mmHg 66%
    13:00 +26°C° 0 mm 1 m/s 751 mmHg 60%
    14:00 +27°C° 0 mm 1 m/s 751 mmHg 53%
    15:00 +27°C° 0 mm 1 m/s 751 mmHg 57%
    16:00 +26°C° 0 mm 1 m/s 751 mmHg 60%
    17:00 +26°C° 0 mm 1 m/s 751 mmHg 63%
    18:00 +24°C° 0 mm 1 m/s 751 mmHg 72%
    19:00 +22°C° 0 mm 1 m/s 751 mmHg 81%
    20:00 +20°C° 0 mm 1 m/s 751 mmHg 90%
    21:00 +20°C° 0 mm 1 m/s 752 mmHg 91%
    22:00 +19°C° 0 mm 1 m/s 752 mmHg 92%
    23:00 +16°C° 0 mm 0 m/s 752 mmHg 94%

    Depois de amanhã, 8 Junho, Segunda-feira

    Tempo Temperatura Precipitação Vento Pressão Humidade
    00:00 +16°C° 0 mm 0 m/s 752 mmHg 94%
    01:00 +18°C° 0 mm 1 m/s 752 mmHg 94%
    02:00 +16°C° 0 mm 1 m/s 752 mmHg 95%
    03:00 +18°C° 0 mm 1 m/s 752 mmHg 94%
    04:00 +19°C° 0 mm 1 m/s 752 mmHg 93%
    05:00 +19°C° 0 mm 1 m/s 752 mmHg 93%
    06:00 +21°C° 0 mm 1 m/s 752 mmHg 86%
    07:00 +23°C° 0 mm 1 m/s 752 mmHg 80%
    08:00 +25°C° 0 mm 1 m/s 753 mmHg 74%
    09:00 +26°C° 0 mm 1 m/s 753 mmHg 67%
    10:00 +27°C° 0 mm 1 m/s 752 mmHg 60%
    11:00 +29°C° 0 mm 1 m/s 752 mmHg 54%
    12:00 +29°C° 0.2 mm 1 m/s 752 mmHg 54%
    13:00 +29°C° 0.2 mm 1 m/s 752 mmHg 55%
    14:00 +29°C° 0.2 mm 2 m/s 752 mmHg 55%
    15:00 +28°C° 0.1 mm 2 m/s 752 mmHg 59%
    16:00 +28°C° 0.1 mm 2 m/s 752 mmHg 63%
    17:00 +27°C° 0.1 mm 2 m/s 752 mmHg 67%
    18:00 +26°C° 0 mm 2 m/s 752 mmHg 74%
    19:00 +24°C° 0 mm 2 m/s 752 mmHg 81%
    20:00 +21°C° 0 mm 2 m/s 752 mmHg 89%
    21:00 +20°C° 0 mm 2 m/s 752 mmHg 91%
    22:00 +19°C° 0 mm 2 m/s 752 mmHg 92%
    23:00 +19°C° 0 mm 2 m/s 752 mmHg 94%

    9 Junho, Terça-feira

    Tempo Temperatura Precipitação Vento Pressão Humidade
    00:00 +18°C° 0 mm 2 m/s 752 mmHg 94%
    01:00 +18°C° 0 mm 2 m/s 753 mmHg 95%
    02:00 +19°C° 0 mm 1 m/s 753 mmHg 95%
    03:00 +18°C° 0 mm 2 m/s 753 mmHg 93%
    04:00 +19°C° 0 mm 2 m/s 753 mmHg 90%
    05:00 +19°C° 0 mm 2 m/s 753 mmHg 88%
    06:00 +21°C° 0 mm 2 m/s 753 mmHg 82%
    07:00 +22°C° 0 mm 3 m/s 753 mmHg 76%
    08:00 +25°C° 0 mm 3 m/s 753 mmHg 70%
    09:00 +26°C° 0 mm 3 m/s 753 mmHg 65%
    10:00 +27°C° 0 mm 3 m/s 753 mmHg 59%
    11:00 +28°C° 0 mm 3 m/s 753 mmHg 54%
    12:00 +28°C° 0 mm 3 m/s 753 mmHg 53%
    13:00 +29°C° 0 mm 3 m/s 753 mmHg 52%
    14:00 +29°C° 0 mm 3 m/s 753 mmHg 51%
    15:00 +29°C° 0 mm 3 m/s 753 mmHg 54%
    16:00 +28°C° 0 mm 2 m/s 753 mmHg 58%
    17:00 +28°C° 0 mm 2 m/s 753 mmHg 61%
    18:00 +26°C° 0.1 mm 2 m/s 753 mmHg 69%
    19:00 +24°C° 0.1 mm 2 m/s 753 mmHg 77%
    20:00 +21°C° 0.1 mm 2 m/s 753 mmHg 85%
    21:00 +20°C° 0 mm 2 m/s 753 mmHg 88%
    22:00 +19°C° 0 mm 2 m/s 753 mmHg 90%
    23:00 +18°C° 0 mm 2 m/s 753 mmHg 92%

    10 Junho, Quarta-feira

    Tempo Temperatura Precipitação Vento Pressão Humidade
    00:00 +19°C° 0 mm 1 m/s 753 mmHg 93%
    01:00 +19°C° 0 mm 1 m/s 753 mmHg 94%
    02:00 +18°C° 0 mm 1 m/s 753 mmHg 95%
    03:00 +19°C° 0 mm 1 m/s 753 mmHg 93%
    04:00 +19°C° 0 mm 1 m/s 753 mmHg 91%
    05:00 +19°C° 0 mm 2 m/s 753 mmHg 89%
    06:00 +21°C° 0 mm 2 m/s 753 mmHg 83%
    07:00 +23°C° 0 mm 2 m/s 753 mmHg 76%
    08:00 +25°C° 0 mm 2 m/s 753 mmHg 70%
    09:00 +26°C° 0 mm 2 m/s 753 mmHg 65%
    10:00 +27°C° 0 mm 3 m/s 753 mmHg 61%
    11:00 +28°C° 0 mm 3 m/s 753 mmHg 56%
    12:00 +28°C° 0.1 mm 3 m/s 752 mmHg 56%
    13:00 +28°C° 0.1 mm 3 m/s 752 mmHg 56%
    14:00 +28°C° 0.1 mm 3 m/s 752 mmHg 56%
    15:00 +28°C° 0.3 mm 2 m/s 752 mmHg 61%
    16:00 +27°C° 0.3 mm 2 m/s 752 mmHg 66%
    17:00 +26°C° 0.3 mm 2 m/s 752 mmHg 71%
    18:00 +25°C° 0.1 mm 2 m/s 752 mmHg 77%
    19:00 +23°C° 0.1 mm 2 m/s 751 mmHg 82%
    20:00 +21°C° 0.1 mm 2 m/s 751 mmHg 88%
    21:00 +21°C° 0 mm 1 m/s 751 mmHg 90%
    22:00 +20°C° 0 mm 1 m/s 751 mmHg 92%
    23:00 +19°C° 0 mm 1 m/s 751 mmHg 94%

    11 Junho, Quinta-feira

    Tempo Temperatura Precipitação Vento Pressão Humidade
    00:00 +19°C° 0 mm 1 m/s 751 mmHg 95%
    01:00 +19°C° 0 mm 1 m/s 751 mmHg 95%
    02:00 +18°C° 0 mm 1 m/s 751 mmHg 95%
    03:00 +19°C° 0 mm 1 m/s 751 mmHg 94%
    04:00 +20°C° 0 mm 1 m/s 751 mmHg 93%
    05:00 +20°C° 0 mm 1 m/s 751 mmHg 92%
    06:00 +22°C° 0 mm 1 m/s 751 mmHg 85%
    07:00 +24°C° 0 mm 1 m/s 751 mmHg 78%
    08:00 +25°C° 0 mm 1 m/s 751 mmHg 71%
    09:00 +27°C° 0 mm 1 m/s 751 mmHg 64%
    10:00 +28°C° 0 mm 1 m/s 751 mmHg 58%
    11:00 +29°C° 0 mm 2 m/s 751 mmHg 51%
    12:00 +29°C° 0 mm 2 m/s 750 mmHg 49%
    13:00 +30°C° 0 mm 2 m/s 750 mmHg 47%
    14:00 +30°C° 0 mm 2 m/s 750 mmHg 45%
    15:00 +30°C° 0.1 mm 2 m/s 750 mmHg 50%
    16:00 +29°C° 0.1 mm 2 m/s 750 mmHg 55%
    17:00 +29°C° 0.1 mm 2 m/s 749 mmHg 59%
    18:00 +27°C° 0.2 mm 1 m/s 749 mmHg 67%
    19:00 +25°C° 0.2 mm 1 m/s 749 mmHg 76%
    20:00 +23°C° 0.2 mm 1 m/s 749 mmHg 84%
    21:00 +22°C° 0.1 mm 1 m/s 749 mmHg 86%
    22:00 +21°C° 0.1 mm 1 m/s 749 mmHg 88%
    23:00 +21°C° 0.1 mm 1 m/s 749 mmHg 90%
    Mostrar mais